Vorticity
10 9 8 6 3 -2 15 10 12 2 11 0 -6 9 5 8 -3 -27 22 0 -1 -5 4 6 1 0 -1 -1 0 3 11 12 9 8 7 7 7 7 8 8 7 7 6 7 7 10 11 11 9
8 8 9 8 -14 -0 19 -2 14 11 12 1 6 6 4 8 14 -14 10 4 2 -1 1 6 3 0 -1 -1 -1 -1 3 7 13 10 8 7 7 6 6 7 8 9 9 10 10 9 8 8 8
11 4 6 5 3 10 8 7 18 5 19 1 16 9 6 9 20 -15 15 -0 4 4 -1 1 4 1 -0 -0 -0 1 -1 2 4 13 11 8 7 7 7 7 7 6 7 7 6 6 6 7 7
-15 -2 9 -1 6 1 -11 23 12 12 9 4 2 6 8 7 10 5 14 3 3 1 4 0 4 2 -0 1 1 1 2 2 6 6 9 11 9 7 6 5 4 3 3 2 2 2 2 3 3
-11 -1 0 17 -3 20 -1 14 6 11 6 2 5 2 7 7 11 14 9 3 4 1 2 2 2 2 -0 1 0 1 3 1 -0 0 3 4 10 10 8 7 6 6 5 6 6 6 5 5 5
-1 2 -9 7 12 12 -8 -8 11 9 8 6 5 4 4 8 5 13 4 5 4 3 1 0 3 4 1 2 1 1 1 0 2 1 1 2 2 4 7 9 8 7 6 6 6 5 6 6 6
15 -8 5 12 8 0 -3 -9 12 9 4 6 2 7 12 7 2 -1 8 9 5 8 3 1 2 5 3 3 2 2 1 2 1 2 1 2 0 1 0 1 2 4 5 6 7 7 7 5 6
-11 -6 11 1 16 7 1 -7 6 11 10 3 2 12 10 10 9 11 -4 -2 7 11 7 5 2 2 3 4 4 3 3 1 2 0 1 4 -3 -1 1 1 3 2 0 0 -1 0 0 0 4
9 -32 11 7 7 4 -1 -1 -2 8 18 9 8 5 5 11 13 12 11 6 -5 4 10 9 6 5 4 4 4 3 2 1 2 1 1 1 2 2 0 0 -0 1 4 1 0 -1 -2 -2 -3
30 24 4 0 -6 -2 3 -2 -0 11 13 4 5 9 13 8 8 14 11 14 14 5 3 7 8 9 6 4 5 4 3 4 4 3 3 2 2 2 3 2 2 2 2 2 2 2 2 2 2
28 -15 26 13 15 -8 16 -4 20 13 13 6 -0 3 3 8 9 8 7 9 8 14 16 15 15 13 11 10 9 8 6 7 7 6 6 5 5 5 4 3 3 3 3 3 4 4 3 3 3
-6 13 6 -25 22 5 -17 1 -8 17 16 6 7 3 7 6 11 10 13 3 9 5 5 6 6 8 7 6 7 6 5 5 5 6 8 8 7 7 6 5 5 5 6 5 4 5 5 5 4
14 8 22 2 -1 18 2 -3 3 3 10 8 13 5 1 5 8 6 2 5 7 6 5 4 4 6 6 6 6 7 8 8 8 7 7 8 6 6 6 6 6 6 5 4 3 4 5 5 5
22 7 25 6 24 -19 16 5 -16 -17 4 6 9 9 14 9 10 10 8 5 -1 -2 -0 2 4 6 4 4 3 3 4 3 4 6 8 8 8 7 7 7 7 7 6 7 7 6 6 6 6
6 15 5 36 9 15 5 26 -5 -20 -6 4 20 5 3 5 7 5 5 6 6 5 3 3 1 2 1 3 1 2 2 3 2 2 5 6 6 6 6 7 6 6 6 5 5 4 4 6 6
16 4 17 12 30 22 15 25 36 -8 -1 0 18 10 0 3 1 3 6 3 3 2 1 -1 -0 1 4 4 3 1 2 2 3 3 2 5 6 6 7 9 7 5 4 2 2 2 2 4 4
8 20 4 8 6 4 4 11 4 50 -20 -12 11 10 9 10 8 6 5 6 8 5 3 3 6 8 8 6 4 4 3 4 4 2 4 6 7 6 6 4 6 4 3 3 3 3 5 5 5
-3 7 10 5 -0 14 11 9 3 17 19 7 -10 5 1 2 3 3 4 5 5 5 4 4 5 4 5 6 7 8 8 8 7 6 4 4 6 6 6 7 6 5 5 4 4 6 7 5 4
-9 -9 10 4 16 9 4 15 -9 3 34 30 5 1 4 2 1 3 -1 -2 -1 3 3 2 1 5 5 5 6 6 6 6 6 6 5 6 7 4 5 6 7 7 4 4 4 3 -1 4 6
29 1 4 12 -3 14 2 8 7 -2 11 29 6 -0 -3 -5 6 2 -3 -2 3 9 7 8 8 8 6 6 6 6 5 6 7 7 6 5 5 7 7 8 8 6 6 4 2 2 2 4 6
28 4 2 1 8 18 34 12 -3 5 -5 14 12 -7 -12 4 3 0 3 12 6 6 4 4 4 5 6 5 8 11 11 11 9 8 8 7 7 7 6 6 7 7 8 9 10 10 9 8 9
5 23 17 15 12 -7 3 14 37 -2 -4 6 16 4 2 3 9 14 11 14 14 18 15 10 9 8 8 7 5 6 7 7 7 7 7 7 7 7 7 7 7 9 10 10 11 11 12 13 12
9 8 16 20 13 -17 17 -8 38 -4 23 13 16 3 2 8 8 3 8 9 9 9 8 7 5 4 3 5 5 6 6 7 9 10 10 9 8 7 8 9 10 11 12 11 9 8 8 7 8
17 18 14 2 2 16 1 -14 39 22 13 7 18 9 2 -5 -1 3 9 10 7 4 2 3 3 4 7 8 8 7 7 11 11 10 10 11 10 10 10 10 10 8 4 5 7 7 7 8 9
13 8 3 4 11 4 35 27 -42 -13 26 28 28 29 22 29 5 12 -1 -1 2 9 11 10 8 7 9 9 10 11 13 12 10 9 8 8 8 8 6 5 7 8 7 6 8 9 10 10 10
3 -18 7 9 7 8 6 13 23 31 20 -3 -0 20 18 17 20 10 9 2 10 10 7 8 12 13 14 15 14 13 10 9 9 8 7 7 9 10 10 9 9 10 11 11 12 13 13 12 10
5 -0 -6 1 10 10 7 9 -2 11 29 16 -11 16 25 28 6 19 20 10 7 6 10 16 18 15 12 11 10 10 10 11 11 10 10 9 9 10 10 11 13 14 15 15 15 14 13 13 13
9 -5 12 5 5 8 14 19 -8 3 19 17 38 3 9 9 13 17 11 9 9 13 14 13 12 11 9 8 8 7 7 8 8 8 9 10 10 11 13 13 13 12 11 11 14 14 13 13 12
-2 10 -11 4 -16 7 5 17 12 -15 -10 23 26 25 13 6 13 13 9 11 12 13 11 9 8 8 8 8 9 9 9 9 9 10 11 12 12 11 11 10 9 10 10 9 10 13 10 11 10
15 10 4 -17 15 10 -12 -5 -14 -29 13 21 38 10 23 19 15 11 9 10 10 9 9 8 8 8 8 9 9 9 10 10 10 9 10 12 12 12 10 10 10 9 9 10 14 12 10 11 10
Height
3136 3138 3142 3146 3153 3149 3150 3153 3155 3159 3161 3164 3166 3169 3170 3172 3175 3180 3179 3181 3184 3186 3188 3190 3192 3193 3194 3194 3194 3194 3193 3193 3193 3192 3192 3191 3191 3191 3190 3190 3190 3190 3191 3191 3191 3191 3191 3191 3191
3134 3137 3140 3142 3146 3145 3148 3152 3154 3156 3158 3161 3164 3167 3169 3170 3173 3177 3179 3181 3184 3187 3188 3190 3192 3194 3194 3196 3196 3196 3196 3195 3195 3194 3194 3193 3193 3193 3193 3192 3192 3192 3192 3192 3192 3192 3192 3193 3193
3132 3135 3138 3140 3140 3142 3147 3150 3151 3153 3156 3160 3163 3166 3168 3170 3173 3175 3178 3181 3183 3186 3189 3191 3193 3194 3195 3196 3197 3197 3197 3198 3197 3196 3196 3195 3195 3195 3195 3195 3195 3195 3195 3195 3195 3195 3195 3194 3195
3127 3133 3137 3135 3136 3142 3145 3147 3149 3152 3154 3157 3161 3165 3168 3169 3172 3175 3178 3180 3183 3185 3188 3191 3192 3194 3196 3196 3197 3198 3198 3199 3199 3198 3197 3197 3196 3197 3197 3197 3197 3197 3197 3197 3197 3197 3197 3197 3197
3124 3129 3132 3132 3135 3140 3143 3145 3147 3150 3151 3155 3158 3162 3167 3169 3172 3174 3176 3179 3182 3185 3187 3190 3192 3194 3196 3196 3197 3198 3199 3200 3200 3200 3200 3199 3199 3199 3199 3199 3199 3199 3199 3199 3199 3199 3199 3199 3199
3120 3126 3127 3127 3132 3138 3141 3144 3145 3147 3150 3153 3157 3161 3165 3168 3170 3173 3175 3178 3181 3184 3186 3188 3191 3194 3195 3197 3197 3198 3199 3200 3200 3200 3201 3201 3201 3201 3201 3201 3201 3200 3201 3201 3201 3201 3201 3200 3200
3111 3120 3121 3124 3131 3136 3139 3142 3143 3146 3149 3151 3154 3158 3162 3164 3168 3172 3174 3177 3180 3182 3184 3187 3190 3193 3195 3196 3197 3199 3199 3200 3200 3201 3201 3202 3202 3202 3203 3202 3202 3202 3202 3202 3202 3202 3202 3201 3200
3109 3117 3120 3120 3127 3133 3136 3140 3142 3144 3146 3149 3152 3156 3160 3163 3165 3169 3173 3175 3178 3180 3182 3186 3189 3192 3194 3196 3197 3198 3199 3199 3200 3200 3201 3201 3202 3202 3203 3203 3203 3203 3203 3203 3203 3202 3202 3202 3201
3105 3109 3113 3116 3124 3129 3133 3138 3141 3142 3146 3149 3152 3156 3160 3161 3163 3166 3169 3172 3176 3178 3181 3184 3187 3189 3192 3194 3195 3196 3197 3198 3199 3199 3200 3201 3201 3201 3202 3202 3202 3202 3203 3202 3202 3202 3201 3201 3201
3098 3104 3108 3113 3123 3125 3130 3136 3139 3142 3144 3146 3148 3152 3157 3160 3162 3164 3168 3170 3173 3176 3179 3182 3184 3187 3189 3191 3193 3194 3195 3196 3197 3198 3199 3199 3200 3200 3201 3201 3201 3202 3202 3201 3201 3200 3200 3200 3200
3094 3096 3104 3113 3119 3122 3127 3132 3137 3140 3141 3143 3146 3149 3152 3159 3161 3163 3165 3168 3171 3173 3177 3179 3182 3184 3186 3188 3190 3192 3193 3194 3195 3196 3197 3197 3198 3199 3199 3199 3200 3200 3200 3200 3199 3199 3198 3198 3198
3093 3097 3103 3112 3114 3119 3125 3129 3133 3137 3139 3141 3144 3146 3149 3154 3159 3161 3164 3168 3170 3173 3175 3177 3180 3183 3184 3186 3188 3189 3191 3192 3193 3194 3194 3195 3195 3196 3196 3197 3197 3197 3197 3197 3197 3196 3196 3196 3195
3088 3093 3101 3107 3110 3116 3119 3126 3129 3134 3137 3139 3142 3146 3150 3153 3156 3161 3163 3166 3169 3171 3174 3176 3178 3180 3182 3184 3185 3187 3188 3189 3190 3191 3191 3192 3192 3193 3193 3193 3194 3194 3194 3193 3193 3193 3193 3192 3192
3086 3092 3097 3102 3106 3113 3117 3122 3127 3132 3134 3137 3140 3144 3147 3150 3154 3158 3161 3164 3168 3170 3171 3174 3176 3178 3180 3182 3183 3184 3185 3186 3187 3188 3188 3189 3189 3189 3190 3190 3190 3190 3190 3190 3189 3189 3189 3189 3188
3086 3093 3098 3101 3103 3110 3115 3119 3119 3129 3132 3134 3137 3140 3144 3148 3151 3155 3159 3162 3164 3167 3168 3172 3174 3175 3178 3179 3180 3181 3182 3183 3184 3185 3185 3185 3185 3185 3186 3186 3186 3186 3186 3185 3185 3185 3184 3184 3183
3086 3091 3094 3096 3100 3104 3111 3113 3120 3124 3128 3131 3133 3135 3140 3145 3149 3152 3155 3158 3161 3163 3166 3168 3170 3172 3174 3175 3176 3178 3178 3179 3180 3181 3181 3181 3181 3182 3182 3182 3182 3181 3181 3181 3181 3180 3179 3178 3177
3084 3086 3090 3095 3099 3104 3109 3110 3117 3117 3125 3128 3131 3132 3135 3141 3145 3148 3151 3154 3157 3160 3163 3165 3166 3167 3169 3171 3172 3173 3174 3175 3176 3177 3177 3177 3177 3177 3177 3177 3177 3177 3176 3176 3175 3175 3173 3173 3172
3071 3081 3087 3090 3095 3099 3104 3107 3111 3115 3119 3124 3127 3128 3132 3135 3141 3144 3148 3150 3154 3156 3158 3159 3161 3162 3164 3165 3166 3168 3169 3170 3171 3172 3172 3171 3171 3171 3171 3172 3172 3171 3170 3170 3169 3168 3167 3166 3165
3075 3082 3087 3092 3095 3098 3100 3106 3107 3111 3113 3119 3120 3123 3129 3132 3136 3139 3143 3146 3149 3151 3153 3154 3156 3157 3158 3159 3161 3162 3163 3163 3164 3165 3166 3165 3165 3165 3164 3165 3165 3165 3164 3163 3163 3161 3160 3158 3157
3076 3082 3088 3093 3097 3100 3100 3103 3107 3107 3111 3114 3118 3119 3124 3129 3132 3135 3138 3141 3144 3146 3147 3148 3150 3151 3152 3153 3154 3155 3155 3156 3157 3158 3159 3159 3158 3157 3157 3157 3157 3156 3155 3155 3155 3153 3151 3149 3150
3076 3081 3086 3092 3096 3100 3101 3102 3102 3104 3107 3110 3112 3115 3120 3122 3125 3128 3132 3135 3138 3140 3141 3143 3144 3146 3146 3147 3148 3148 3148 3148 3149 3150 3150 3150 3150 3150 3149 3149 3149 3148 3147 3147 3146 3145 3142 3140 3140
3078 3082 3086 3091 3094 3095 3099 3097 3095 3099 3101 3104 3107 3108 3113 3117 3119 3122 3126 3129 3132 3133 3135 3136 3137 3139 3140 3141 3141 3142 3142 3142 3142 3143 3143 3142 3142 3141 3141 3141 3140 3140 3139 3138 3137 3136 3135 3133 3132
3080 3082 3086 3091 3093 3094 3095 3098 3086 3094 3093 3092 3097 3101 3106 3112 3115 3118 3121 3123 3125 3127 3129 3130 3131 3132 3133 3134 3134 3134 3134 3134 3134 3134 3134 3134 3133 3133 3133 3133 3132 3132 3131 3130 3130 3129 3128 3126 3124
3080 3082 3086 3090 3093 3092 3092 3095 3076 3081 3083 3087 3091 3096 3101 3106 3109 3113 3115 3117 3119 3121 3122 3123 3124 3124 3125 3126 3126 3127 3127 3127 3127 3127 3127 3127 3127 3126 3126 3125 3125 3125 3124 3123 3122 3121 3119 3119 3117
3080 3082 3087 3094 3093 3092 3088 3089 3077 3080 3082 3083 3087 3089 3093 3097 3100 3104 3107 3111 3113 3113 3114 3115 3116 3117 3117 3118 3119 3119 3119 3119 3119 3119 3119 3119 3119 3119 3118 3117 3117 3116 3115 3115 3114 3113 3111 3110 3109
3078 3081 3081 3088 3090 3087 3086 3078 3073 3076 3078 3082 3084 3085 3085 3088 3093 3098 3101 3103 3105 3106 3106 3107 3108 3108 3109 3110 3111 3111 3111 3111 3111 3112 3112 3112 3112 3111 3111 3110 3109 3108 3107 3106 3104 3103 3102 3101 3100
3077 3079 3081 3082 3085 3086 3079 3074 3073 3075 3075 3077 3078 3079 3080 3083 3088 3091 3094 3097 3098 3099 3099 3100 3100 3101 3102 3103 3103 3104 3104 3104 3105 3105 3105 3105 3104 3103 3103 3102 3101 3099 3098 3097 3096 3095 3093 3092 3092
3074 3078 3081 3082 3087 3086 3076 3073 3072 3072 3070 3070 3070 3073 3077 3080 3082 3084 3088 3090 3092 3093 3094 3094 3095 3095 3096 3096 3097 3097 3097 3097 3098 3097 3097 3097 3096 3095 3095 3093 3092 3092 3091 3090 3089 3088 3087 3086 3086
3073 3075 3079 3081 3080 3080 3080 3070 3069 3069 3068 3066 3066 3067 3070 3074 3077 3080 3082 3085 3086 3087 3088 3089 3090 3091 3091 3091 3091 3091 3091 3090 3090 3089 3089 3088 3088 3088 3087 3086 3085 3085 3084 3083 3082 3082 3081 3081 3080
3069 3071 3074 3076 3077 3076 3077 3068 3066 3066 3069 3066 3063 3065 3067 3070 3073 3075 3077 3079 3081 3082 3084 3084 3085 3086 3086 3085 3085 3085 3084 3084 3083 3082 3082 3081 3080 3080 3080 3079 3079 3078 3078 3077 3076 3076 3076 3075 3075